When you browse on this site, cookies collect data to enhance your experience and personalize the content and advertising you see.
Visit our Privacy Policy to learn more. By continuing to use the site, you agree to this use of cookies and data.
  • In Österreich
  • Länderverzeichnis
  • Für 7 Tage
  • Wassertemperatur
  • Wetterkarte
  • News
  • Widgets
  • user-avatar
    Anmelden

    Stündliche Wetter Troy

    Heute, 20 August, Dienstag

    Zeit Temperatur Niederschläge Wind Luftdruck Luftfeuchtigkeit
    00:00 +22°C° 0 mm 1 m/S 760 mmHg 86%
    01:00 +22°C° 0 mm 1 m/S 761 mmHg 84%
    02:00 +21°C° 0 mm 1 m/S 761 mmHg 84%
    03:00 +20°C° 0 mm 1 m/S 761 mmHg 84%
    04:00 +19°C° 0 mm 1 m/S 761 mmHg 84%
    05:00 +20°C° 0 mm 1 m/S 761 mmHg 80%
    06:00 +21°C° 0 mm 1 m/S 762 mmHg 77%
    07:00 +20°C° 0 mm 0 m/S 762 mmHg 73%
    08:00 +22°C° 0 mm 0 m/S 762 mmHg 63%
    09:00 +26°C° 0 mm 1 m/S 762 mmHg 54%
    10:00 +29°C° 0 mm 1 m/S 762 mmHg 45%
    11:00 +30°C° 0 mm 1 m/S 762 mmHg 41%
    12:00 +31°C° 0 mm 1 m/S 762 mmHg 38%
    13:00 +32°C° 0 mm 1 m/S 761 mmHg 35%
    14:00 +31°C° 0 mm 1 m/S 761 mmHg 37%
    15:00 +31°C° 0 mm 1 m/S 761 mmHg 40%
    16:00 +31°C° 0 mm 1 m/S 760 mmHg 42%
    17:00 +29°C° 0 mm 1 m/S 760 mmHg 50%
    18:00 +27°C° 0 mm 1 m/S 761 mmHg 57%
    19:00 +23°C° 0 mm 0 m/S 761 mmHg 64%
    20:00 +22°C° 0 mm 0 m/S 761 mmHg 65%
    21:00 +22°C° 0 mm 0 m/S 761 mmHg 66%
    22:00 +21°C° 0 mm 0 m/S 761 mmHg 67%
    23:00 +21°C° 0 mm 0 m/S 761 mmHg 69%

    Morgen, 21 August, Mittwoch

    Zeit Temperatur Niederschläge Wind Luftdruck Luftfeuchtigkeit
    00:00 +22°C° 0 mm 1 m/S 761 mmHg 71%
    01:00 +22°C° 0 mm 1 m/S 761 mmHg 73%
    02:00 +22°C° 0 mm 1 m/S 760 mmHg 75%
    03:00 +22°C° 0 mm 1 m/S 760 mmHg 78%
    04:00 +22°C° 0 mm 1 m/S 759 mmHg 81%
    05:00 +22°C° 0 mm 1 m/S 759 mmHg 82%
    06:00 +23°C° 0 mm 1 m/S 759 mmHg 82%
    07:00 +24°C° 0 mm 1 m/S 760 mmHg 83%
    08:00 +25°C° 0.4 mm 2 m/S 759 mmHg 82%
    09:00 +27°C° 0.4 mm 3 m/S 759 mmHg 81%
    10:00 +28°C° 0.4 mm 3 m/S 758 mmHg 81%
    11:00 +29°C° 1.1 mm 3 m/S 758 mmHg 77%
    12:00 +30°C° 1.1 mm 3 m/S 758 mmHg 73%
    13:00 +31°C° 1.1 mm 3 m/S 757 mmHg 69%
    14:00 +31°C° 0.5 mm 3 m/S 757 mmHg 71%
    15:00 +30°C° 0.5 mm 3 m/S 756 mmHg 73%
    16:00 +29°C° 0.5 mm 3 m/S 756 mmHg 75%
    17:00 +28°C° 0.1 mm 3 m/S 756 mmHg 76%
    18:00 +28°C° 0.1 mm 3 m/S 756 mmHg 77%
    19:00 +27°C° 0.1 mm 3 m/S 756 mmHg 77%
    20:00 +26°C° 0.3 mm 3 m/S 755 mmHg 82%
    21:00 +25°C° 0.3 mm 3 m/S 755 mmHg 86%
    22:00 +25°C° 0.3 mm 3 m/S 755 mmHg 90%
    23:00 +24°C° 0.4 mm 3 m/S 755 mmHg 91%

    übermorgen, 22 August, Donnerstag

    Zeit Temperatur Niederschläge Wind Luftdruck Luftfeuchtigkeit
    00:00 +24°C° 0.4 mm 3 m/S 755 mmHg 93%
    01:00 +24°C° 0.4 mm 2 m/S 755 mmHg 94%
    02:00 +24°C° 0.1 mm 2 m/S 755 mmHg 94%
    03:00 +24°C° 0.1 mm 2 m/S 755 mmHg 94%
    04:00 +24°C° 0.1 mm 1 m/S 755 mmHg 94%
    05:00 +23°C° 0 mm 2 m/S 755 mmHg 90%
    06:00 +23°C° 0 mm 2 m/S 756 mmHg 87%
    07:00 +21°C° 0 mm 3 m/S 756 mmHg 83%
    08:00 +22°C° 0 mm 3 m/S 757 mmHg 72%
    09:00 +24°C° 0 mm 3 m/S 757 mmHg 60%
    10:00 +25°C° 0 mm 3 m/S 757 mmHg 48%
    11:00 +26°C° 0 mm 3 m/S 757 mmHg 46%
    12:00 +27°C° 0 mm 3 m/S 757 mmHg 44%
    13:00 +28°C° 0 mm 3 m/S 757 mmHg 43%
    14:00 +28°C° 0 mm 4 m/S 757 mmHg 45%
    15:00 +27°C° 0 mm 4 m/S 756 mmHg 48%
    16:00 +27°C° 0 mm 5 m/S 756 mmHg 51%
    17:00 +25°C° 0 mm 4 m/S 757 mmHg 55%
    18:00 +22°C° 0 mm 3 m/S 757 mmHg 58%
    19:00 +20°C° 0 mm 3 m/S 758 mmHg 61%
    20:00 +19°C° 0 mm 2 m/S 758 mmHg 66%
    21:00 +18°C° 0 mm 2 m/S 758 mmHg 70%
    22:00 +17°C° 0 mm 2 m/S 758 mmHg 75%
    23:00 +17°C° 0 mm 2 m/S 758 mmHg 77%

    23 August, Freitag

    Zeit Temperatur Niederschläge Wind Luftdruck Luftfeuchtigkeit
    00:00 +16°C° 0 mm 2 m/S 758 mmHg 79%
    01:00 +15°C° 0 mm 1 m/S 759 mmHg 81%
    02:00 +15°C° 0 mm 1 m/S 759 mmHg 83%
    03:00 +14°C° 0 mm 1 m/S 759 mmHg 84%
    04:00 +14°C° 0 mm 1 m/S 759 mmHg 86%
    05:00 +14°C° 0 mm 2 m/S 759 mmHg 82%
    06:00 +15°C° 0 mm 2 m/S 760 mmHg 78%
    07:00 +16°C° 0 mm 2 m/S 760 mmHg 74%
    08:00 +18°C° 0 mm 2 m/S 760 mmHg 65%
    09:00 +20°C° 0 mm 3 m/S 760 mmHg 57%
    10:00 +21°C° 0 mm 4 m/S 760 mmHg 48%
    11:00 +22°C° 0 mm 4 m/S 759 mmHg 46%
    12:00 +23°C° 0 mm 4 m/S 759 mmHg 44%
    13:00 +25°C° 0 mm 4 m/S 759 mmHg 41%
    14:00 +25°C° 0 mm 4 m/S 759 mmHg 42%
    15:00 +25°C° 0 mm 4 m/S 759 mmHg 43%
    16:00 +25°C° 0 mm 4 m/S 759 mmHg 44%
    17:00 +22°C° 0 mm 4 m/S 759 mmHg 50%
    18:00 +20°C° 0 mm 3 m/S 760 mmHg 56%
    19:00 +19°C° 0 mm 3 m/S 760 mmHg 61%
    20:00 +18°C° 0 mm 3 m/S 761 mmHg 65%
    21:00 +16°C° 0 mm 2 m/S 761 mmHg 69%
    22:00 +15°C° 0 mm 2 m/S 761 mmHg 73%
    23:00 +15°C° 0 mm 2 m/S 762 mmHg 76%

    24 August, Samstag

    Zeit Temperatur Niederschläge Wind Luftdruck Luftfeuchtigkeit
    00:00 +14°C° 0 mm 2 m/S 762 mmHg 80%
    01:00 +14°C° 0 mm 1 m/S 762 mmHg 83%
    02:00 +13°C° 0 mm 1 m/S 762 mmHg 84%
    03:00 +13°C° 0 mm 1 m/S 762 mmHg 85%
    04:00 +13°C° 0 mm 1 m/S 762 mmHg 86%
    05:00 +14°C° 0 mm 1 m/S 763 mmHg 83%
    06:00 +15°C° 0 mm 1 m/S 763 mmHg 79%
    07:00 +16°C° 0 mm 1 m/S 763 mmHg 75%
    08:00 +18°C° 0 mm 2 m/S 763 mmHg 68%
    09:00 +19°C° 0 mm 2 m/S 763 mmHg 62%
    10:00 +21°C° 0 mm 3 m/S 763 mmHg 55%
    11:00 +22°C° 0 mm 3 m/S 763 mmHg 53%
    12:00 +24°C° 0 mm 3 m/S 763 mmHg 50%
    13:00 +25°C° 0 mm 3 m/S 763 mmHg 48%
    14:00 +26°C° 0 mm 3 m/S 763 mmHg 48%
    15:00 +26°C° 0 mm 3 m/S 763 mmHg 49%
    16:00 +26°C° 0 mm 3 m/S 763 mmHg 49%
    17:00 +24°C° 0 mm 2 m/S 763 mmHg 55%
    18:00 +21°C° 0 mm 2 m/S 763 mmHg 61%
    19:00 +19°C° 0 mm 2 m/S 764 mmHg 67%
    20:00 +18°C° 0 mm 2 m/S 764 mmHg 71%
    21:00 +18°C° 0 mm 1 m/S 765 mmHg 75%
    22:00 +16°C° 0 mm 1 m/S 765 mmHg 78%
    23:00 +15°C° 0 mm 1 m/S 765 mmHg 81%

    25 August, Sonntag

    Zeit Temperatur Niederschläge Wind Luftdruck Luftfeuchtigkeit
    00:00 +15°C° 0 mm 1 m/S 765 mmHg 83%
    01:00 +14°C° 0 mm 1 m/S 765 mmHg 86%
    02:00 +14°C° 0 mm 1 m/S 766 mmHg 87%
    03:00 +14°C° 0 mm 1 m/S 766 mmHg 88%
    04:00 +12°C° 0 mm 0 m/S 766 mmHg 89%
    05:00 +14°C° 0 mm 0 m/S 767 mmHg 86%
    06:00 +15°C° 0 mm 0 m/S 767 mmHg 82%
    07:00 +16°C° 0 mm 0 m/S 767 mmHg 78%
    08:00 +19°C° 0 mm 0 m/S 767 mmHg 70%
    09:00 +23°C° 0 mm 1 m/S 767 mmHg 62%
    10:00 +26°C° 0 mm 1 m/S 767 mmHg 54%
    11:00 +26°C° 0 mm 1 m/S 767 mmHg 52%
    12:00 +27°C° 0 mm 1 m/S 767 mmHg 50%
    13:00 +28°C° 0 mm 2 m/S 766 mmHg 48%
    14:00 +28°C° 0 mm 2 m/S 766 mmHg 49%
    15:00 +28°C° 0 mm 2 m/S 766 mmHg 49%
    16:00 +28°C° 0 mm 2 m/S 766 mmHg 50%
    17:00 +26°C° 0 mm 2 m/S 766 mmHg 55%
    18:00 +24°C° 0 mm 2 m/S 766 mmHg 60%
    19:00 +23°C° 0 mm 2 m/S 766 mmHg 65%
    20:00 +21°C° 0 mm 2 m/S 767 mmHg 68%
    21:00 +20°C° 0 mm 2 m/S 767 mmHg 71%
    22:00 +20°C° 0 mm 3 m/S 768 mmHg 74%
    23:00 +19°C° 0 mm 2 m/S 768 mmHg 78%
    Mehr zeigen